ABS-2A (MONGOLSAT-1)

Last updated on Tue Sep 22 2026 00:03:13 GMT+0000 (Coordinated Universal Time)

1 41588U 16038A 26264.14751584 .00000000 00000+0 00000+0 0 9997 2 41588 0.0175 168.9712 0001771 316.4339 2.4675 1.00270438 37672
UTC large
Height (km)
Speed (km/s)
/
Latitude / Longitude
Inclination (degrees)
Orbital Period (minutes)
Azimuth
Elevation
Range (km)
Doppler Factor

Next 0 passes for location: London (51.5072 / 0.1276)

No passes found over London.
ABS-2A (MONGOLSAT-1)